This is the latest recevied weather packets stored in our database for station/object LA5PPA-1. If no packets are shown the sender has not sent any weather packets the latest 1 day(s).
| Time | Temp. | Humidity | Pressure | Rain* | Wind** | Luminosity | Snow |
|---|---|---|---|---|---|---|---|
| 1778055414 | 0° C | 56% | 1017.3 hPa | 0 mm | - | - | - |
| 1778055114 | 0° C | 57% | 1017.2 hPa | 0 mm | - | - | - |
| 1778054814 | -0.56° C | 57% | 1017.2 hPa | 0 mm | - | - | - |
| 1778054514 | -0.56° C | 59% | 1017.2 hPa | 0 mm | - | - | - |
| 1778054214 | -0.56° C | 56% | 1017.3 hPa | 0 mm | - | - | - |
| 1778053914 | -0.56° C | 57% | 1017.2 hPa | 0 mm | - | - | - |
| 1778053614 | -0.56° C | 58% | 1017.2 hPa | 0 mm | - | - | - |
| 1778053314 | -0.56° C | 59% | 1017.2 hPa | 0 mm | - | - | - |
| 1778053014 | -1.11° C | 59% | 1017.2 hPa | 0 mm | - | - | - |
| 1778052714 | -1.11° C | 60% | 1017.2 hPa | 0 mm | - | - | - |
| 1778052414 | -1.67° C | 62% | 1017.2 hPa | 0 mm | - | - | - |
| 1778052114 | -1.67° C | 62% | 1017.2 hPa | 0 mm | - | - | - |
| 1778051814 | -2.22° C | 62% | 1017.2 hPa | 0 mm | - | - | - |
| 1778051514 | -2.22° C | 63% | 1017.2 hPa | 0 mm | - | - | - |
| 1778051214 | -2.22° C | 64% | 1017.1 hPa | 0 mm | - | - | - |
| 1778050914 | -2.22° C | 64% | 1017.2 hPa | 0 mm | - | - | - |
| 1778050614 | -2.78° C | 66% | 1017.2 hPa | 0 mm | - | - | - |
| 1778050314 | -2.78° C | 67% | 1017.2 hPa | 0 mm | - | - | - |
| 1778049714 | -3.33° C | 68% | 1017.2 hPa | 0 mm | - | - | - |
| 1778049414 | -3.33° C | 67% | 1017.2 hPa | 0 mm | - | - | - |
| 1778048814 | -3.89° C | 70% | 1017.2 hPa | 0 mm | - | - | - |
| 1778048214 | -3.89° C | 71% | 1017.2 hPa | 0 mm | - | - | - |
| 1778047914 | -3.89° C | 72% | 1017.2 hPa | 0 mm | - | - | - |
| 1778047014 | -4.44° C | 74% | 1017.2 hPa | 0 mm | - | - | - |
| 1778046414 | -5° C | 75% | 1017.2 hPa | 0 mm | - | - | - |
* Rain latest hour (hover to see other rain measurements)
** Current wind speed in m/s (hover to see current wind gust speed)